COSMOS 2251 DEB, 35646

Orbit data source: Space-Track

COSMOS 2251 DEB, 35646 is space debris in LEO originally from a launch on Wed, 16 Jun 1993 UTC launched from the Plesetsk Missile And Space Complex (PKMTR). The debris from Iridium 33, an American commercial communications satellite, has been tracked extensively since its accidental collision with the defunct Russian satellite Cosmos 2251 in 2009. This event, occurring at high speed in low Earth orbit (LEO), generated thousands of pieces of space debris, significantly increasing the risk of further collisions. The Iridium 33 debris cloud has impacted space traffic management and orbital debris mitigation strategies, making it a subject of ongoing study in space situational awareness.

Loading next visibility...
Identifier
35646, 1993-036ANM
Orbit
LEO
Country
Flag of CISCIS
Related business
Manufacturer
Unknown
Mission
Spacecraft
Bus & Motor
Unknown
Mass
Unknown
Launch date (UTC)
1993-06-16 (33 years ago)
Launch vehicle
Unknown
Launch site
Plesetsk Missile And Space Complex (PKMTR)
Object type
Payload
Rocket body
Debris
Shape & HBR
Unknown shape, 0.1 m
Radar Cross Section
Medium (>0.1 m² and <1 m²)

Expand to show TLE details & history
Last TLE update: 1 day ago

TLE from 1 day ago
0 COSMOS 2251 DEB
1 35646U 93036ANM 26162.66266037  .00000495  00000-0  50181-3 0  9994
2 35646  73.8683 128.8453 0459303 207.9288 334.7568 13.41124994842831
Epoch: 2026-06-11T15:54Z
TLE epoch observation values (Epoch: 2026-06-11T15:54:13.855Z)
Latitude
-0.4166°
Longitude
170.40419°
Altitude
799.774 km
Speed
7.605 km/s
True Right ascension
20h 35m 51s
True Declination
0° 24' 51"
Sunlit
Object was in full shadow at epoch
Visualization orbit readout
Latitude
Unknown
Longitude
Unknown
Altitude
Unknown
Speed
Unknown
Apparent Right ascension
Unknown
Apparent Declination
Unknown
Sunlit
N/A
Visualization observer readout
Local Sidereal Time
05:37:04
Azimuth
Unknown
Elevation
Unknown
Doppler factor
Unknown
Orbital elements
Apogee altitude
1,446.431 km
Perigee altitude
759.225 km
Semi-major axis
7,480.965 km
Eccentricity
0.04593
Inclination
73.8683°
RAAN
128.8453°
Arg. of periapsis
207.9288°
True anomaly
332.39026°
Mean anomaly
334.7568°
Eccentric anomaly
333.58612°
Mean motion
3.35434 °/min
Orbital period
107.32 mins
BSTAR
0.00050181

Documentation

Showing up to 5 results
|